Waarnemingen

Advertentie
Mijn weer
Bilbao/Aeropuerto, Spanje (8025): temperatuur & dauwpunt: 16.09.2018 23:00:00 - 22.09.2018 23:00:00 (CEST)Bilbao/Aeropuerto, Spanje (8025): windsnelheid: 16.09.2018 23:00:00 - 22.09.2018 23:00:00 (CEST)Bilbao/Aeropuerto, Spanje (8025): windrichting: 16.09.2018 23:00:00 - 22.09.2018 23:00:00 (CEST)Bilbao/Aeropuerto, Spanje (8025): luchtdruk: 16.09.2018 23:00:00 - 22.09.2018 23:00:00 (CEST)Bilbao/Aeropuerto, Spanje (8025): zicht: 16.09.2018 23:00:00 - 22.09.2018 23:00:00 (CEST)
Datum & Tijd tt [°C] td [°C] ff [km/u] ff [kn] dd ppp [hPa] vv [km]
22.09.2018 23:00:00 19,1 16,8 5 3 O 1025,4 15
22.09.2018 22:00:00 20,1 16,9 0 0 N 1025,1 -
22.09.2018 21:00:00 21,1 17,1 5 3 WZW 1024,4 -
22.09.2018 20:00:00 23,4 16,6 9 5 W 1023,9 40
22.09.2018 19:00:00 25,9 15,9 15 8 NW 1023,5 -
22.09.2018 18:00:00 27,0 16,1 13 7 NW 1023,4 -
22.09.2018 17:00:00 27,9 16,5 18 10 NW 1023,3 40
22.09.2018 16:00:00 29,6 15,7 22 12 NW 1023,0 -
22.09.2018 15:00:00 29,7 15,5 15 8 NNW 1022,8 -
22.09.2018 14:00:00 29,3 15,5 9 5 WNW 1023,0 40
22.09.2018 13:00:00 27,7 16,4 5 3 NW 1023,2 -
22.09.2018 12:00:00 25,4 17,3 4 2 WZW 1023,1 -
22.09.2018 11:00:00 23,4 17,2 5 3 ZO 1023,4 35
22.09.2018 10:00:00 20,7 17,8 5 3 OZO 1023,1 -
22.09.2018 09:00:00 18,0 17,0 8 4 ZZO 1023,0 -
22.09.2018 08:00:00 16,8 16,8 4 2 Z 1023,0 20
22.09.2018 07:00:00 16,7 16,7 8 4 ZZO 1022,6 -
22.09.2018 06:00:00 17,0 17,0 8 4 OZO 1023,0 -
22.09.2018 05:00:00 17,6 17,4 5 3 ZO 1023,4 12
22.09.2018 04:00:00 18,4 17,7 5 3 O 1023,8 -
22.09.2018 03:00:00 19,3 18,3 8 4 O 1024,2 -
22.09.2018 02:00:00 19,4 18,2 8 4 O 1024,4 -
22.09.2018 01:00:00 19,4 18,2 5 3 ONO 1024,6 -
22.09.2018 00:00:00 19,2 18,2 2 1 WNW 1024,8 -
21.09.2018 23:00:00 19,3 18,1 4 2 ZO 1024,5 12
21.09.2018 22:00:00 19,4 18,4 8 4 NO 1024,8 -
21.09.2018 21:00:00 19,6 18,6 0 0 N 1024,1 -
21.09.2018 20:00:00 19,6 18,4 2 1 WNW 1023,6 9
21.09.2018 19:00:00 20,6 18,2 9 5 N 1023,4 -
21.09.2018 18:00:00 21,9 18,1 15 8 NW 1022,9 -
21.09.2018 17:00:00 21,9 17,9 15 8 NW 1022,8 20
21.09.2018 16:00:00 23,0 17,6 21 11 NNW 1022,4 -
21.09.2018 15:00:00 23,3 17,2 18 10 NW 1022,0 -
21.09.2018 14:00:00 23,8 16,2 18 10 NNW 1022,0 25
21.09.2018 13:00:00 24,4 14,2 16 9 NW 1021,8 -
21.09.2018 12:00:00 22,6 17,3 5 3 ZO 1021,8 -
21.09.2018 11:00:00 20,1 17,5 9 5 OZO 1021,2 10
21.09.2018 10:00:00 17,9 17,7 8 4 ZO 1020,8 -
21.09.2018 09:00:00 17,2 17,2 11 6 OZO 1020,2 -
21.09.2018 08:00:00 17,1 17,1 5 3 OZO 1019,4 7
21.09.2018 07:00:00 16,3 16,3 5 3 ZO 1018,6 -
21.09.2018 06:00:00 16,7 16,7 4 2 OZO 1018,4 -
21.09.2018 05:00:00 16,5 16,5 4 2 ZO 1018,2 9
21.09.2018 04:00:00 16,7 16,7 4 2 ZZO 1018,0 -
21.09.2018 03:00:00 17,3 17,3 4 2 O 1018,2 -
21.09.2018 02:00:00 18,4 18,1 4 2 ONO 1018,2 -
21.09.2018 01:00:00 18,3 17,7 5 3 O 1018,2 -
21.09.2018 00:00:00 19,1 18,1 4 2 ZO 1018,3 -
20.09.2018 23:00:00 20,2 18,5 4 2 ZO 1018,5 12
20.09.2018 22:00:00 21,4 18,4 4 2 ONO 1018,6 -
20.09.2018 21:00:00 21,4 18,8 5 3 NNW 1018,2 -
20.09.2018 20:00:00 21,5 18,5 9 5 NW 1017,7 12
20.09.2018 19:00:00 23,3 18,6 13 7 NW 1017,4 -
20.09.2018 18:00:00 24,5 17,5 16 9 WNW 1017,0 -
20.09.2018 17:00:00 26,2 17,6 24 13 NW 1016,9 20
20.09.2018 16:00:00 27,1 18,4 18 10 WNW 1016,7 -
20.09.2018 15:00:00 27,3 19,0 22 12 WNW 1017,0 -
20.09.2018 14:00:00 28,0 19,2 18 10 WNW 1017,5 20
20.09.2018 13:00:00 28,3 19,0 5 3 N 1018,3 -
20.09.2018 12:00:00 26,1 19,2 9 5 OZO 1018,9 -
20.09.2018 11:00:00 24,2 18,6 15 8 O 1019,2 20
20.09.2018 10:00:00 22,4 19,2 16 9 OZO 1019,5 -
20.09.2018 09:00:00 20,6 19,4 13 7 OZO 1019,9 -
20.09.2018 08:00:00 20,1 19,3 9 5 OZO 1020,3 15
20.09.2018 07:00:00 20,1 19,4 2 1 O 1020,6 -
20.09.2018 06:00:00 20,1 19,4 5 3 ONO 1020,9 -
20.09.2018 05:00:00 19,9 19,6 4 2 ZO 1021,3 15
20.09.2018 04:00:00 19,7 19,4 0 0 N 1021,8 -
20.09.2018 03:00:00 19,7 19,2 4 2 O 1022,2 -
20.09.2018 02:00:00 19,2 18,9 0 0 N 1022,6 -
20.09.2018 01:00:00 18,9 18,6 0 0 N 1022,8 -
20.09.2018 00:00:00 19,0 18,3 0 0 N 1023,0 -
19.09.2018 23:00:00 19,6 18,9 0 0 N 1022,9 8
19.09.2018 22:00:00 20,1 18,9 4 2 W 1022,5 -
19.09.2018 21:00:00 20,2 19,0 8 4 NNW 1022,1 -
19.09.2018 20:00:00 21,3 19,0 9 5 W 1021,8 9
19.09.2018 19:00:00 22,3 19,7 13 7 WNW 1021,6 -
19.09.2018 18:00:00 22,4 19,9 15 8 WNW 1021,5 -
19.09.2018 17:00:00 23,2 19,8 15 8 WNW 1021,3 8
19.09.2018 16:00:00 24,6 19,9 22 12 WNW 1021,3 -
19.09.2018 15:00:00 25,0 19,7 26 14 WNW 1021,1 -
19.09.2018 14:00:00 25,7 19,8 21 11 WNW 1020,9 8
19.09.2018 13:00:00 26,2 19,0 5 3 ONO 1020,9 -
19.09.2018 12:00:00 25,0 19,3 4 2 O 1021,4 -
19.09.2018 11:00:00 22,5 19,4 4 2 WZW 1021,8 8
19.09.2018 10:00:00 20,9 19,2 4 2 NW 1021,3 -
19.09.2018 09:00:00 19,8 18,9 4 2 NW 1020,6 -
19.09.2018 08:00:00 19,5 18,7 8 4 ZO 1019,8 15
19.09.2018 07:00:00 20,1 18,8 0 0 N 1019,4 -
19.09.2018 06:00:00 20,1 19,1 4 2 ZO 1018,9 -
19.09.2018 05:00:00 20,3 19,1 5 3 O 1019,4 15
19.09.2018 04:00:00 20,3 19,1 5 3 O 1019,9 -
19.09.2018 03:00:00 20,1 19,1 2 1 ZZO 1020,3 -
19.09.2018 02:00:00 20,3 19,3 8 4 O 1020,1 -
19.09.2018 01:00:00 20,4 19,2 4 2 O 1019,9 -
19.09.2018 00:00:00 20,3 19,1 8 4 OZO 1020,1 -
18.09.2018 23:00:00 20,4 19,2 5 3 OZO 1020,1 15
18.09.2018 22:00:00 21,0 19,3 2 1 Z 1019,5 -
18.09.2018 21:00:00 21,1 19,1 4 2 Z 1019,1 -
18.09.2018 20:00:00 21,7 18,9 4 2 O 1018,7 10
18.09.2018 19:00:00 22,1 19,3 11 6 NO 1018,1 -
18.09.2018 18:00:00 22,2 19,9 13 7 WNW 1017,4 -
18.09.2018 17:00:00 23,7 19,7 15 8 NNW 1016,7 10
18.09.2018 16:00:00 25,9 20,0 9 5 NNW 1016,3 -
18.09.2018 15:00:00 24,7 19,3 11 6 NNW 1016,6 -
18.09.2018 14:00:00 24,8 19,4 13 7 N 1016,8 20
18.09.2018 13:00:00 23,8 18,7 8 4 WNW 1017,1 -
18.09.2018 12:00:00 23,6 19,1 4 2 O 1017,4 -
18.09.2018 11:00:00 21,2 18,4 4 2 ZO 1017,7 15
18.09.2018 10:00:00 18,8 18,3 9 5 O 1017,2 -
18.09.2018 09:00:00 17,8 17,5 4 2 OZO 1017,1 -
18.09.2018 08:00:00 17,3 17,1 5 3 O 1016,2 12
18.09.2018 07:00:00 17,3 16,8 5 3 O 1015,9 -
18.09.2018 06:00:00 17,1 16,3 2 1 O 1015,8 -
18.09.2018 05:00:00 17,0 16,4 5 3 O 1015,8 15
18.09.2018 04:00:00 17,2 16,6 11 6 O 1016,1 -
18.09.2018 03:00:00 17,5 16,9 5 3 O 1016,1 -
18.09.2018 02:00:00 18,0 17,7 9 5 O 1015,9 -
18.09.2018 01:00:00 18,8 18,1 8 4 O 1015,8 -
18.09.2018 00:00:00 19,8 18,6 4 2 WNW 1015,7 -
17.09.2018 23:00:00 20,7 19,2 5 3 ZZW 1015,9 15
17.09.2018 22:00:00 21,4 19,1 8 4 N 1015,5 -
17.09.2018 21:00:00 21,4 19,5 9 5 ZO 1014,3 -
17.09.2018 20:00:00 23,0 18,2 13 7 NNW 1013,2 40
17.09.2018 19:00:00 24,6 18,3 24 13 W 1011,7 -
17.09.2018 18:00:00 36,0 14,6 8 4 ZZO 1010,8 -
17.09.2018 17:00:00 35,9 14,5 11 6 Z 1011,6 40
17.09.2018 16:00:00 35,8 16,4 8 4 ZZO 1012,3 -
17.09.2018 15:00:00 34,9 15,9 15 8 ZZO 1013,0 -
17.09.2018 14:00:00 33,1 16,4 15 8 Z 1013,9 25
17.09.2018 13:00:00 31,5 16,3 15 8 Z 1014,6 -
17.09.2018 12:00:00 30,1 16,5 15 8 ZO 1015,2 -
17.09.2018 11:00:00 27,6 16,9 18 10 OZO 1015,4 20
17.09.2018 10:00:00 24,3 17,2 18 10 OZO 1015,8 -
17.09.2018 09:00:00 19,2 17,4 16 9 ZO 1016,3 -
17.09.2018 08:00:00 17,5 16,9 15 8 ZO 1016,7 15
17.09.2018 07:00:00 17,6 17,1 11 6 OZO 1016,9 -
17.09.2018 06:00:00 17,6 16,8 4 2 OZO 1017,4 -
17.09.2018 05:00:00 18,2 16,9 8 4 OZO 1018,2 15
17.09.2018 04:00:00 19,3 17,1 11 6 OZO 1018,7 -
17.09.2018 03:00:00 19,3 17,4 9 5 OZO 1019,4 -
17.09.2018 02:00:00 19,0 17,1 5 3 ZO 1020,2 -
17.09.2018 01:00:00 19,3 17,3 5 3 O 1020,9 -
17.09.2018 00:00:00 19,2 16,8 8 4 O 1021,4 -
16.09.2018 23:00:00 20,1 16,6 4 2 Z 1021,6 12

tt = temperatuur
td = dauwpunt
ff = windsnelheid
dd = windrichting
ppp = luchtdruk
vv = zicht

Weerstations in de omgeving